| time (UTC) | temp F | wind direction | speed MPH | gust MPH | rain 1hr in | rain 24hr in | rain mn in | humidity % | barometer mb |
| 20260506172631 | 68 | 136 | 3.0 | 5.0 | 0.00 | 0.00 | 0.00 | 73 | 1008.0 |
| 20260506172127 | 69 | 213 | 1.0 | 1.0 | 0.00 | 0.00 | 0.00 | 72 | 1008.0 |
| 20260506171625 | 69 | 96 | 2.0 | 2.0 | 0.00 | 0.00 | 0.00 | 72 | 1008.2 |
| 20260506171123 | 69 | 341 | 0.0 | 0.0 | 0.00 | 0.00 | 0.00 | 73 | 1008.0 |
| 20260506170620 | 69 | 63 | 0.0 | 0.0 | 0.00 | 0.00 | 0.00 | 72 | 1007.8 |
| 20260506170117 | 70 | 176 | 0.0 | 1.0 | 0.00 | 0.00 | 0.00 | 72 | 1008.3 |
| 20260506165615 | 70 | 273 | 2.0 | 3.0 | 0.00 | 0.00 | 0.00 | 72 | 1008.0 |
| 20260506165111 | 71 | 227 | 3.0 | 6.0 | 0.00 | 0.00 | 0.00 | 71 | 1008.0 |
| 20260506164608 | 70 | 135 | 3.0 | 5.0 | 0.00 | 0.00 | 0.00 | 72 | 1008.3 |
| 20260506164106 | 69 | 145 | 0.0 | 0.0 | 0.00 | 0.00 | 0.00 | 75 | 1008.3 |
| 20260506163601 | 68 | 260 | 0.0 | 0.0 | 0.00 | 0.00 | 0.00 | 75 | 1008.5 |
| 20260506163058 | 69 | 117 | 3.0 | 6.0 | 0.00 | 0.00 | 0.00 | 72 | 1008.7 |
| 20260506162554 | 70 | 120 | 0.0 | 0.0 | 0.00 | 0.00 | 0.00 | 70 | 1008.8 |
| 20260506162051 | 70 | 143 | 0.0 | 0.0 | 0.00 | 0.00 | 0.00 | 70 | 1008.8 |
| 20260506161549 | 71 | 42 | 1.0 | 1.0 | 0.00 | 0.00 | 0.00 | 66 | 1009.0 |
| 20260506161045 | 72 | 242 | 0.0 | 1.0 | 0.00 | 0.00 | 0.00 | 64 | 1009.0 |
| 20260506160543 | 71 | 324 | 3.0 | 5.0 | 0.00 | 0.00 | 0.00 | 65 | 1009.0 |
| 20260506160040 | 71 | 332 | 1.0 | 2.0 | 0.00 | 0.00 | 0.00 | 66 | 1009.1 |
| 20260506155539 | 71 | 159 | 0.0 | 0.0 | 0.00 | 0.00 | 0.00 | 66 | 1009.2 |
| 20260506153715 | 70 | 162 | 1.0 | 2.0 | 0.00 | 0.00 | 0.00 | 66 | 1009.2 |
| 20260506153213 | 70 | 122 | 0.0 | 1.0 | 0.00 | 0.00 | 0.00 | 65 | 1009.0 |
| 20260506152709 | 70 | 248 | 0.0 | 0.0 | 0.00 | 0.00 | 0.00 | 65 | 1009.0 |
| 20260506152207 | 70 | 217 | 3.0 | 3.0 | 0.00 | 0.00 | 0.00 | 65 | 1009.2 |
| 20260506151706 | 70 | 251 | 3.0 | 6.0 | 0.00 | 0.00 | 0.00 | 65 | 1009.3 |
| 20260506151202 | 70 | 232 | 3.0 | 5.0 | 0.00 | 0.00 | 0.00 | 64 | 1009.3 |
| 20260506150658 | 70 | 154 | 0.0 | 1.0 | 0.00 | 0.00 | 0.00 | 64 | 1009.2 |
| 20260506150155 | 70 | 120 | 0.0 | 0.0 | 0.00 | 0.00 | 0.00 | 64 | 1009.2 |
| 20260506145652 | 70 | 320 | 7.0 | 13.0 | 0.00 | 0.00 | 0.00 | 63 | 1009.2 |
| 20260506145149 | 70 | 216 | 3.0 | 5.0 | 0.00 | 0.00 | 0.00 | 64 | 1009.3 |
| 20260506144647 | 70 | 178 | 0.0 | 0.0 | 0.00 | 0.00 | 0.00 | 64 | 1009.3 |
| 20260506144143 | 69 | 148 | 0.0 | 2.0 | 0.00 | 0.00 | 0.00 | 65 | 1009.2 |
| 20260506143641 | 69 | 135 | 2.0 | 3.0 | 0.00 | 0.00 | 0.00 | 64 | 1009.2 |
| 20260506143139 | 69 | 125 | 0.0 | 1.0 | 0.00 | 0.00 | 0.00 | 65 | 1009.3 |
| 20260506142637 | 69 | 259 | 1.0 | 2.0 | 0.00 | 0.00 | 0.00 | 64 | 1009.4 |
| 20260506142135 | 70 | 158 | 0.0 | 0.0 | 0.00 | 0.00 | 0.00 | 64 | 1009.4 |
| 20260506141632 | 70 | 306 | 0.0 | 0.0 | 0.00 | 0.00 | 0.00 | 64 | 1009.5 |
| 20260506141130 | 71 | 251 | 3.0 | 6.0 | 0.00 | 0.00 | 0.00 | 63 | 1009.4 |
| 20260506140628 | 71 | 359 | 0.0 | 2.0 | 0.00 | 0.00 | 0.00 | 63 | 1009.6 |
| 20260506140125 | 70 | 106 | 0.0 | 0.0 | 0.00 | 0.00 | 0.00 | 63 | 1009.1 |
| 20260506135622 | 70 | 163 | 0.0 | 0.0 | 0.00 | 0.00 | 0.00 | 65 | 1009.0 |
| 20260506135118 | 69 | 141 | 1.0 | 1.0 | 0.00 | 0.00 | 0.00 | 64 | 1008.9 |
| 20260506134614 | 69 | 179 | 0.0 | 2.0 | 0.00 | 0.00 | 0.00 | 65 | 1009.2 |
| 20260506134110 | 69 | 203 | 1.0 | 3.0 | 0.00 | 0.00 | 0.00 | 65 | 1009.3 |
| 20260506133608 | 69 | 119 | 4.0 | 7.0 | 0.00 | 0.00 | 0.00 | 65 | 1009.1 |
| 20260506133104 | 69 | 265 | 2.0 | 3.0 | 0.00 | 0.00 | 0.00 | 65 | 1009.1 |
| 20260506132602 | 70 | 114 | 0.0 | 1.0 | 0.00 | 0.00 | 0.00 | 64 | 1009.1 |
| 20260506132059 | 70 | 164 | 4.0 | 6.0 | 0.00 | 0.00 | 0.00 | 64 | 1009.2 |
| 20260506131556 | 70 | 239 | 2.0 | 2.0 | 0.00 | 0.00 | 0.00 | 64 | 1009.4 |
| 20260506131052 | 70 | 151 | 0.0 | 0.0 | 0.00 | 0.00 | 0.00 | 64 | 1009.6 |
| 20260506130549 | 70 | 192 | 3.0 | 6.0 | 0.00 | 0.00 | 0.00 | 64 | 1009.5 |
| 20260506130047 | 70 | 273 | 0.0 | 2.0 | 0.00 | 0.00 | 0.00 | 64 | 1009.6 |
| 20260506125545 | 69 | 181 | 3.0 | 5.0 | 0.00 | 0.00 | 0.00 | 65 | 1009.8 |
| 20260506125042 | 69 | 119 | 0.0 | 1.0 | 0.00 | 0.00 | 0.00 | 66 | 1009.6 |
| 20260506124540 | 69 | 221 | 0.0 | 0.0 | 0.00 | 0.00 | 0.00 | 67 | 1009.6 |
| 20260506124038 | 68 | 135 | 0.0 | 0.0 | 0.00 | 0.00 | 0.00 | 69 | 1009.4 |
| 20260506123535 | 68 | 128 | 0.0 | 1.0 | 0.00 | 0.00 | 0.00 | 69 | 1009.5 |
| 20260506123034 | 68 | 192 | 1.0 | 2.0 | 0.00 | 0.00 | 0.00 | 69 | 1009.5 |
| 20260506122530 | 68 | 246 | 2.0 | 10.0 | 0.00 | 0.00 | 0.00 | 68 | 1009.6 |
| 20260506122028 | 68 | 256 | 1.0 | 2.0 | 0.00 | 0.00 | 0.00 | 70 | 1009.7 |
| 20260506121525 | 67 | 145 | 1.0 | 3.0 | 0.00 | 0.00 | 0.00 | 71 | 1009.8 |
| 20260506121021 | 66 | 204 | 0.0 | 0.0 | 0.00 | 0.00 | 0.00 | 72 | 1009.7 |
| 20260506120519 | 66 | 287 | 4.0 | 6.0 | 0.00 | 0.00 | 0.00 | 73 | 1009.6 |
| 20260506120017 | 66 | 265 | 1.0 | 3.0 | 0.00 | 0.00 | 0.00 | 72 | 1009.6 |
| 20260506115514 | 67 | 156 | 0.0 | 1.0 | 0.00 | 0.00 | 0.00 | 72 | 1009.6 |
| 20260506115012 | 66 | 198 | 0.0 | 0.0 | 0.00 | 0.00 | 0.00 | 73 | 1009.7 |
| 20260506114509 | 65 | 95 | 1.0 | 2.0 | 0.00 | 0.00 | 0.00 | 74 | 1009.9 |
| 20260506114008 | 65 | 228 | 0.0 | 0.0 | 0.00 | 0.00 | 0.00 | 75 | 1009.5 |
| 20260506113505 | 65 | 216 | 2.0 | 3.0 | 0.00 | 0.00 | 0.00 | 76 | 1009.6 |
| 20260506113002 | 65 | 130 | 0.0 | 0.0 | 0.00 | 0.00 | 0.00 | 76 | 1009.7 |
| 20260506112459 | 64 | 71 | 2.0 | 6.0 | 0.00 | 0.00 | 0.00 | 77 | 1009.8 |
| 20260506111956 | 64 | 200 | 1.0 | 2.0 | 0.00 | 0.00 | 0.00 | 78 | 1009.6 |
| 20260506111454 | 64 | 206 | 0.0 | 1.0 | 0.00 | 0.00 | 0.00 | 78 | 1009.4 |
| 20260506110951 | 63 | 253 | 0.0 | 1.0 | 0.00 | 0.00 | 0.00 | 79 | 1009.8 |
| 20260506110449 | 63 | 118 | 1.0 | 2.0 | 0.00 | 0.00 | 0.00 | 79 | 1009.9 |
| 20260506105945 | 63 | 133 | 0.0 | 0.0 | 0.00 | 0.00 | 0.00 | 79 | 1009.7 |
| 20260506105442 | 63 | 308 | 1.0 | 2.0 | 0.00 | 0.00 | 0.00 | 79 | 1009.7 |
| 20260506104939 | 63 | 118 | 0.0 | 0.0 | 0.00 | 0.00 | 0.00 | 80 | 1009.7 |
| 20260506104437 | 63 | 215 | 0.0 | 1.0 | 0.00 | 0.00 | 0.00 | 80 | 1009.5 |
| 20260506103935 | 63 | 130 | 0.0 | 0.0 | 0.00 | 0.00 | 0.00 | 80 | 1009.6 |
| 20260506103432 | 63 | 22 | 0.0 | 1.0 | 0.00 | 0.00 | 0.00 | 80 | 1009.6 |
| 20260506102929 | 63 | 74 | 1.0 | 3.0 | 0.00 | 0.00 | 0.00 | 80 | 1009.6 |
| 20260506102427 | 63 | 152 | 0.0 | 1.0 | 0.00 | 0.00 | 0.00 | 80 | 1009.7 |
| 20260506101924 | 63 | 351 | 2.0 | 3.0 | 0.00 | 0.00 | 0.00 | 80 | 1009.7 |
| 20260506101420 | 63 | 205 | 0.0 | 0.0 | 0.00 | 0.00 | 0.00 | 80 | 1009.7 |
| 20260506100918 | 62 | 215 | 0.0 | 1.0 | 0.00 | 0.00 | 0.00 | 80 | 1009.6 |
| 20260506100416 | 62 | 183 | 0.0 | 0.0 | 0.00 | 0.00 | 0.00 | 81 | 1009.6 |
| 20260506095914 | 63 | 203 | 0.0 | 1.0 | 0.00 | 0.00 | 0.00 | 81 | 1009.4 |
| 20260506095412 | 63 | 204 | 0.0 | 0.0 | 0.00 | 0.00 | 0.00 | 81 | 1009.3 |
| 20260506094908 | 62 | 137 | 1.0 | 2.0 | 0.00 | 0.00 | 0.00 | 81 | 1009.2 |
| 20260506094407 | 63 | 138 | 0.0 | 1.0 | 0.00 | 0.00 | 0.00 | 82 | 1009.5 |
| 20260506093904 | 63 | 151 | 0.0 | 0.0 | 0.00 | 0.00 | 0.00 | 82 | 1009.5 |
| 20260506093401 | 63 | 138 | 0.0 | 0.0 | 0.00 | 0.00 | 0.00 | 82 | 1009.4 |
| 20260506092859 | 63 | 260 | 0.0 | 0.0 | 0.00 | 0.00 | 0.00 | 82 | 1009.3 |
| 20260506092357 | 63 | 153 | 0.0 | 0.0 | 0.00 | 0.00 | 0.00 | 83 | 1009.2 |
| 20260506091853 | 63 | 103 | 1.0 | 2.0 | 0.00 | 0.00 | 0.00 | 82 | 1009.4 |
| 20260506091351 | 63 | 136 | 0.0 | 0.0 | 0.00 | 0.00 | 0.00 | 82 | 1009.5 |
| 20260506090848 | 63 | 154 | 0.0 | 0.0 | 0.00 | 0.00 | 0.00 | 83 | 1009.5 |
| 20260506090346 | 63 | 160 | 0.0 | 0.0 | 0.00 | 0.00 | 0.00 | 82 | 1009.4 |
| 20260506085842 | 63 | 181 | 0.0 | 0.0 | 0.00 | 0.00 | 0.00 | 82 | 1009.7 |
| 20260506085338 | 63 | 160 | 1.0 | 2.0 | 0.00 | 0.00 | 0.00 | 82 | 1009.4 |
| 20260506084835 | 63 | 182 | 0.0 | 0.0 | 0.00 | 0.00 | 0.00 | 83 | 1009.6 |
| 20260506084332 | 63 | 120 | 0.0 | 0.0 | 0.00 | 0.00 | 0.00 | 83 | 1009.5 |
| 20260506083828 | 63 | 243 | 2.0 | 3.0 | 0.00 | 0.00 | 0.00 | 83 | 1009.7 |
| 20260506083326 | 63 | 143 | 0.0 | 0.0 | 0.00 | 0.00 | 0.00 | 83 | 1009.7 |
| 20260506082824 | 63 | 151 | 0.0 | 0.0 | 0.00 | 0.00 | 0.00 | 83 | 1009.8 |
| 20260506082320 | 63 | 171 | 0.0 | 0.0 | 0.00 | 0.00 | 0.00 | 83 | 1009.7 |
| 20260506081816 | 63 | 231 | 1.0 | 2.0 | 0.00 | 0.00 | 0.00 | 82 | 1009.9 |
| 20260506081314 | 63 | 108 | 0.0 | 0.0 | 0.00 | 0.00 | 0.00 | 83 | 1009.8 |
| 20260506080812 | 63 | 171 | 0.0 | 0.0 | 0.00 | 0.00 | 0.00 | 82 | 1009.8 |
| 20260506080308 | 63 | 207 | 0.0 | 0.0 | 0.00 | 0.00 | 0.00 | 82 | 1009.8 |
| 20260506073252 | 64 | 117 | 0.0 | 0.0 | 0.00 | 0.00 | 0.00 | 82 | 1009.8 |
| 20260506072749 | 64 | 119 | 0.0 | 0.0 | 0.00 | 0.00 | 0.00 | 82 | 1009.7 |
| 20260506072246 | 64 | 149 | 0.0 | 0.0 | 0.00 | 0.00 | 0.00 | 82 | 1009.8 |
| 20260506071744 | 64 | 244 | 0.0 | 1.0 | 0.00 | 0.00 | 0.00 | 82 | 1009.8 |
| 20260506071242 | 64 | 122 | 0.0 | 1.0 | 0.00 | 0.00 | 0.00 | 82 | 1009.9 |
| 20260506070738 | 64 | 195 | 0.0 | 0.0 | 0.00 | 0.00 | 0.00 | 82 | 1009.9 |
| 20260506070235 | 64 | 204 | 0.0 | 0.0 | 0.00 | 0.00 | 0.00 | 82 | 1010.0 |
| 20260506062212 | 64 | 284 | 5.0 | 9.0 | 0.00 | 0.00 | 0.00 | 81 | 1009.9 |
| 20260506061708 | 64 | 179 | 0.0 | 0.0 | 0.00 | 0.00 | 0.00 | 81 | 1010.0 |
| 20260506061206 | 64 | 342 | 0.0 | 1.0 | 0.00 | 0.00 | 0.00 | 81 | 1009.9 |
| 20260506060704 | 65 | 124 | 1.0 | 2.0 | 0.00 | 0.00 | 0.00 | 80 | 1010.0 |
| 20260506060201 | 65 | 208 | 0.0 | 1.0 | 0.00 | 0.00 | 0.00 | 80 | 1009.9 |
| 20260506051133 | 66 | 211 | 0.0 | 0.0 | 0.00 | 0.00 | 0.00 | 78 | 1010.5 |
| 20260506050631 | 66 | 183 | 0.0 | 0.0 | 0.00 | 0.00 | 0.00 | 78 | 1010.4 |
| 20260506050128 | 66 | 174 | 0.0 | 0.0 | 0.00 | 0.00 | 0.00 | 77 | 1010.5 |
| 20260506045121 | 66 | 140 | 3.0 | 6.0 | 0.00 | 0.00 | 0.00 | 77 | 1010.6 |
| 20260506044619 | 66 | 190 | 0.0 | 2.0 | 0.00 | 0.00 | 0.00 | 77 | 1010.5 |
| 20260506044116 | 66 | 154 | 0.0 | 1.0 | 0.00 | 0.00 | 0.00 | 77 | 1010.7 |
| 20260506043613 | 66 | 87 | 0.0 | 0.0 | 0.00 | 0.00 | 0.00 | 77 | 1010.5 |
| 20260506043111 | 66 | 190 | 0.0 | 0.0 | 0.00 | 0.00 | 0.00 | 76 | 1010.6 |
| 20260506042610 | 66 | 162 | 0.0 | 0.0 | 0.00 | 0.00 | 0.00 | 76 | 1010.5 |
| 20260506042107 | 66 | 306 | 5.0 | 7.0 | 0.00 | 0.00 | 0.00 | 76 | 1010.5 |
| 20260506041606 | 66 | 189 | 2.0 | 6.0 | 0.00 | 0.00 | 0.00 | 75 | 1010.4 |
| 20260506041102 | 66 | 191 | 0.0 | 0.0 | 0.00 | 0.00 | 0.00 | 75 | 1010.4 |
| 20260506040600 | 66 | 250 | 0.0 | 0.0 | 0.00 | 0.00 | 0.00 | 75 | 1010.6 |
| 20260506040056 | 66 | 173 | 0.0 | 0.0 | 0.00 | 0.00 | 0.00 | 75 | 1010.5 |
| 20260506035553 | 66 | 231 | 1.0 | 2.0 | 0.00 | 0.00 | 0.00 | 75 | 1010.6 |
| 20260506035050 | 67 | 128 | 3.0 | 3.0 | 0.00 | 0.00 | 0.00 | 75 | 1010.7 |
| 20260506034547 | 67 | 146 | 0.0 | 0.0 | 0.00 | 0.00 | 0.00 | 74 | 1010.3 |
| 20260506034044 | 67 | 142 | 2.0 | 5.0 | 0.00 | 0.00 | 0.00 | 74 | 1010.6 |
| 20260506033541 | 67 | 53 | 0.0 | 1.0 | 0.00 | 0.00 | 0.00 | 74 | 1010.5 |
| 20260506033038 | 67 | 131 | 1.0 | 2.0 | 0.00 | 0.00 | 0.00 | 74 | 1010.7 |
| 20260506032536 | 67 | 174 | 0.0 | 0.0 | 0.00 | 0.00 | 0.00 | 74 | 1010.7 |
| 20260506032032 | 67 | 219 | 0.0 | 1.0 | 0.00 | 0.00 | 0.00 | 74 | 1010.5 |
| 20260506031530 | 67 | 157 | 0.0 | 0.0 | 0.00 | 0.00 | 0.00 | 73 | 1010.5 |
| 20260506031027 | 67 | 22 | 0.0 | 1.0 | 0.00 | 0.00 | 0.00 | 73 | 1010.5 |
| 20260506030525 | 67 | 149 | 1.0 | 1.0 | 0.00 | 0.00 | 0.00 | 73 | 1010.6 |
| 20260506030022 | 67 | 173 | 5.0 | 8.0 | 0.00 | 0.00 | 0.00 | 72 | 1010.6 |
| 20260506025519 | 68 | 230 | 0.0 | 2.0 | 0.00 | 0.00 | 0.00 | 72 | 1010.5 |
| 20260506025015 | 68 | 51 | 3.0 | 5.0 | 0.00 | 0.00 | 0.00 | 71 | 1010.5 |
| 20260506024512 | 68 | 97 | 0.0 | 0.0 | 0.00 | 0.00 | 0.00 | 72 | 1010.5 |
| 20260506024008 | 68 | 164 | 0.0 | 0.0 | 0.00 | 0.00 | 0.00 | 71 | 1010.7 |
| 20260506023504 | 68 | 240 | 2.0 | 3.0 | 0.00 | 0.00 | 0.00 | 71 | 1010.7 |
| 20260506023002 | 68 | 127 | 0.0 | 1.0 | 0.00 | 0.00 | 0.00 | 71 | 1010.8 |
| 20260506022459 | 68 | 204 | 0.0 | 0.0 | 0.00 | 0.00 | 0.00 | 70 | 1010.6 |
| 20260506021957 | 68 | 168 | 0.0 | 0.0 | 0.00 | 0.00 | 0.00 | 70 | 1010.7 |
| 20260506021454 | 68 | 133 | 0.0 | 0.0 | 0.00 | 0.00 | 0.00 | 69 | 1010.5 |
| 20260506020951 | 68 | 154 | 0.0 | 0.0 | 0.00 | 0.00 | 0.00 | 68 | 1010.8 |
| 20260506020449 | 68 | 229 | 2.0 | 7.0 | 0.00 | 0.00 | 0.00 | 68 | 1010.7 |
| 20260506015946 | 68 | 63 | 0.0 | 0.0 | 0.00 | 0.00 | 0.00 | 67 | 1010.6 |
| 20260506015443 | 69 | 116 | 0.0 | 2.0 | 0.00 | 0.00 | 0.00 | 66 | 1010.6 |
| 20260506014940 | 69 | 190 | 0.0 | 1.0 | 0.00 | 0.00 | 0.00 | 65 | 1010.5 |
| 20260506014437 | 69 | 219 | 0.0 | 1.0 | 0.00 | 0.00 | 0.00 | 65 | 1010.4 |
| 20260506013933 | 69 | 138 | 0.0 | 0.0 | 0.00 | 0.00 | 0.00 | 64 | 1010.4 |
| 20260506013432 | 69 | 161 | 0.0 | 0.0 | 0.00 | 0.00 | 0.00 | 64 | 1010.4 |
| 20260506012927 | 69 | 171 | 0.0 | 1.0 | 0.00 | 0.00 | 0.00 | 63 | 1010.4 |
| 20260506012424 | 69 | 206 | 0.0 | 1.0 | 0.00 | 0.00 | 0.00 | 62 | 1010.2 |
| 20260506011921 | 69 | 246 | 4.0 | 6.0 | 0.00 | 0.00 | 0.00 | 62 | 1010.6 |
| 20260506011418 | 70 | 173 | 0.0 | 1.0 | 0.00 | 0.00 | 0.00 | 61 | 1010.3 |
| 20260506010915 | 70 | 162 | 0.0 | 1.0 | 0.00 | 0.00 | 0.00 | 61 | 1010.3 |
| 20260506010414 | 70 | 96 | 0.0 | 0.0 | 0.00 | 0.00 | 0.00 | 60 | 1010.4 |
| 20260506005910 | 70 | 197 | 0.0 | 0.0 | 0.00 | 0.00 | 0.00 | 60 | 1010.1 |
| 20260506005408 | 70 | 131 | 0.0 | 0.0 | 0.00 | 0.00 | 0.00 | 60 | 1010.3 |
| 20260506004903 | 70 | 285 | 0.0 | 1.0 | 0.00 | 0.00 | 0.00 | 60 | 1009.9 |
| 20260506004401 | 70 | 188 | 0.0 | 0.0 | 0.00 | 0.00 | 0.00 | 60 | 1009.8 |
| 20260506003857 | 71 | 248 | 0.0 | 0.0 | 0.00 | 0.00 | 0.00 | 60 | 1009.9 |
| 20260506003353 | 71 | 133 | 0.0 | 0.0 | 0.00 | 0.00 | 0.00 | 60 | 1009.8 |
| 20260506002850 | 71 | 225 | 0.0 | 0.0 | 0.00 | 0.00 | 0.00 | 60 | 1009.8 |
| 20260506002346 | 71 | 327 | 0.0 | 1.0 | 0.00 | 0.00 | 0.00 | 60 | 1009.7 |
| 20260506001841 | 71 | 133 | 1.0 | 3.0 | 0.00 | 0.00 | 0.00 | 60 | 1009.6 |
| 20260506001339 | 71 | 142 | 0.0 | 0.0 | 0.00 | 0.00 | 0.00 | 60 | 1009.7 |
| 20260506000836 | 71 | 177 | 0.0 | 1.0 | 0.00 | 0.00 | 0.00 | 60 | 1009.8 |
| 20260506000334 | 71 | 22 | 0.0 | 1.0 | 0.00 | 0.00 | 0.00 | 59 | 1009.6 |
| 20260505235830 | 71 | 163 | 0.0 | 0.0 | 0.00 | 0.00 | 0.00 | 59 | 1009.7 |
| 20260505235328 | 72 | 226 | 3.0 | 6.0 | 0.00 | 0.00 | 0.00 | 59 | 1009.6 |
| 20260505234824 | 72 | 169 | 0.0 | 0.0 | 0.00 | 0.00 | 0.00 | 59 | 1009.6 |
| 20260505234322 | 72 | 190 | 0.0 | 1.0 | 0.00 | 0.00 | 0.00 | 58 | 1009.7 |
| 20260505233819 | 73 | 138 | 3.0 | 6.0 | 0.00 | 0.00 | 0.00 | 57 | 1009.5 |
| 20260505233317 | 73 | 80 | 0.0 | 0.0 | 0.00 | 0.00 | 0.00 | 56 | 1009.6 |
| 20260505232814 | 73 | 139 | 0.0 | 0.0 | 0.00 | 0.00 | 0.00 | 55 | 1009.3 |
| 20260505232311 | 73 | 147 | 0.0 | 0.0 | 0.00 | 0.00 | 0.00 | 55 | 1009.3 |
| 20260505231808 | 74 | 195 | 0.0 | 0.0 | 0.00 | 0.00 | 0.00 | 54 | 1009.3 |
| 20260505231306 | 74 | 102 | 0.0 | 0.0 | 0.00 | 0.00 | 0.00 | 54 | 1009.4 |
| 20260505230804 | 74 | 135 | 1.0 | 1.0 | 0.00 | 0.00 | 0.00 | 53 | 1009.3 |
| 20260505230301 | 75 | 152 | 1.0 | 2.0 | 0.00 | 0.00 | 0.00 | 52 | 1009.2 |
| 20260505225757 | 75 | 205 | 0.0 | 0.0 | 0.00 | 0.00 | 0.00 | 51 | 1009.1 |
| 20260505225255 | 76 | 180 | 0.0 | 0.0 | 0.00 | 0.00 | 0.00 | 49 | 1009.1 |
| 20260505224749 | 76 | 164 | 0.0 | 0.0 | 0.00 | 0.00 | 0.00 | 47 | 1009.1 |
| 20260505224247 | 76 | 262 | 1.0 | 3.0 | 0.00 | 0.00 | 0.00 | 46 | 1009.1 |
| 20260505223745 | 77 | 198 | 1.0 | 3.0 | 0.00 | 0.00 | 0.00 | 45 | 1009.1 |
| 20260505223241 | 78 | 123 | 0.0 | 0.0 | 0.00 | 0.00 | 0.00 | 45 | 1009.1 |
| 20260505222737 | 78 | 145 | 0.0 | 0.0 | 0.00 | 0.00 | 0.00 | 43 | 1009.2 |
| 20260505222233 | 79 | 109 | 5.0 | 6.0 | 0.00 | 0.00 | 0.00 | 42 | 1008.9 |
| 20260505221731 | 79 | 66 | 0.0 | 1.0 | 0.00 | 0.00 | 0.00 | 42 | 1008.8 |
| 20260505221227 | 79 | 171 | 0.0 | 1.0 | 0.00 | 0.00 | 0.00 | 42 | 1008.7 |
| 20260505220724 | 80 | 201 | 0.0 | 1.0 | 0.00 | 0.00 | 0.00 | 41 | 1008.8 |
| 20260505220222 | 80 | 200 | 2.0 | 3.0 | 0.00 | 0.00 | 0.00 | 40 | 1008.9 |
| 20260505215720 | 80 | 139 | 4.0 | 7.0 | 0.00 | 0.00 | 0.00 | 40 | 1008.7 |
| 20260505215217 | 80 | 104 | 1.0 | 2.0 | 0.00 | 0.00 | 0.00 | 39 | 1008.7 |
| 20260505214715 | 80 | 202 | 0.0 | 0.0 | 0.00 | 0.00 | 0.00 | 40 | 1008.7 |
| 20260505214212 | 80 | 113 | 2.0 | 2.0 | 0.00 | 0.00 | 0.00 | 39 | 1008.6 |
| 20260505213709 | 80 | 80 | 1.0 | 3.0 | 0.00 | 0.00 | 0.00 | 38 | 1008.5 |
| 20260505213206 | 81 | 220 | 4.0 | 5.0 | 0.00 | 0.00 | 0.00 | 37 | 1008.7 |
| 20260505212702 | 81 | 162 | 1.0 | 2.0 | 0.00 | 0.00 | 0.00 | 38 | 1008.6 |
| 20260505212200 | 82 | 170 | 2.0 | 3.0 | 0.00 | 0.00 | 0.00 | 37 | 1008.5 |
| 20260505211656 | 82 | 155 | 4.0 | 5.0 | 0.00 | 0.00 | 0.00 | 36 | 1008.5 |
| 20260505211154 | 82 | 177 | 1.0 | 3.0 | 0.00 | 0.00 | 0.00 | 35 | 1008.5 |
| 20260505210650 | 82 | 102 | 1.0 | 3.0 | 0.00 | 0.00 | 0.00 | 36 | 1008.4 |
| 20260505210147 | 82 | 252 | 1.0 | 3.0 | 0.00 | 0.00 | 0.00 | 36 | 1008.4 |
| 20260505205644 | 83 | 159 | 0.0 | 1.0 | 0.00 | 0.00 | 0.00 | 37 | 1008.2 |
| 20260505205143 | 82 | 188 | 3.0 | 5.0 | 0.00 | 0.00 | 0.00 | 35 | 1008.4 |
| 20260505204639 | 83 | 285 | 5.0 | 6.0 | 0.00 | 0.00 | 0.00 | 35 | 1008.0 |
| 20260505204137 | 83 | 224 | 0.0 | 1.0 | 0.00 | 0.00 | 0.00 | 35 | 1008.2 |
| 20260505203634 | 83 | 211 | 0.0 | 1.0 | 0.00 | 0.00 | 0.00 | 35 | 1008.1 |
| 20260505203131 | 83 | 247 | 1.0 | 3.0 | 0.00 | 0.00 | 0.00 | 36 | 1008.3 |
| 20260505202626 | 84 | 137 | 0.0 | 1.0 | 0.00 | 0.00 | 0.00 | 35 | 1008.3 |
| 20260505202122 | 84 | 181 | 2.0 | 3.0 | 0.00 | 0.00 | 0.00 | 36 | 1008.0 |
| 20260505201619 | 84 | 121 | 1.0 | 2.0 | 0.00 | 0.00 | 0.00 | 36 | 1008.3 |
| 20260505201117 | 84 | 257 | 1.0 | 1.0 | 0.00 | 0.00 | 0.00 | 37 | 1008.4 |
| 20260505200615 | 84 | 175 | 3.0 | 6.0 | 0.00 | 0.00 | 0.00 | 36 | 1008.3 |
| 20260505200111 | 84 | 183 | 2.0 | 6.0 | 0.00 | 0.00 | 0.00 | 36 | 1008.3 |
| 20260505195608 | 85 | 353 | 1.0 | 2.0 | 0.00 | 0.00 | 0.00 | 37 | 1008.4 |
| 20260505195105 | 85 | 269 | 1.0 | 2.0 | 0.00 | 0.00 | 0.00 | 37 | 1008.4 |
| 20260505194602 | 85 | 221 | 1.0 | 2.0 | 0.00 | 0.00 | 0.00 | 37 | 1008.5 |
| 20260505194058 | 85 | 84 | 2.0 | 3.0 | 0.00 | 0.00 | 0.00 | 36 | 1008.5 |
| 20260505193555 | 85 | 236 | 2.0 | 2.0 | 0.00 | 0.00 | 0.00 | 37 | 1008.8 |
| 20260505193052 | 85 | 158 | 3.0 | 6.0 | 0.00 | 0.00 | 0.00 | 37 | 1008.2 |
| 20260505192551 | 85 | 240 | 2.0 | 2.0 | 0.00 | 0.00 | 0.00 | 38 | 1008.6 |
| 20260505192048 | 84 | 260 | 3.0 | 5.0 | 0.00 | 0.00 | 0.00 | 36 | 1008.6 |
| 20260505191546 | 85 | 112 | 2.0 | 3.0 | 0.00 | 0.00 | 0.00 | 35 | 1008.9 |
| 20260505191043 | 85 | 209 | 1.0 | 1.0 | 0.00 | 0.00 | 0.00 | 36 | 1008.6 |
| 20260505190538 | 85 | 237 | 2.0 | 3.0 | 0.00 | 0.00 | 0.00 | 34 | 1009.1 |
| 20260505190034 | 85 | 166 | 3.0 | 3.0 | 0.00 | 0.00 | 0.00 | 38 | 1009.0 |
| 20260505185531 | 85 | 227 | 3.0 | 3.0 | 0.00 | 0.00 | 0.00 | 35 | 1009.1 |
| 20260505185027 | 85 | 264 | 2.0 | 5.0 | 0.00 | 0.00 | 0.00 | 35 | 1009.2 |
| 20260505184524 | 85 | 161 | 2.0 | 5.0 | 0.00 | 0.00 | 0.00 | 36 | 1009.2 |
| 20260505184021 | 85 | 185 | 0.0 | 1.0 | 0.00 | 0.00 | 0.00 | 36 | 1009.1 |
| 20260505183512 | 85 | 159 | 2.0 | 7.0 | 0.00 | 0.00 | 0.00 | 36 | 1009.0 |
| 20260505183009 | 84 | 193 | 3.0 | 5.0 | 0.00 | 0.00 | 0.00 | 36 | 1009.1 |
| 20260505182506 | 85 | 134 | 1.0 | 2.0 | 0.00 | 0.00 | 0.00 | 36 | 1009.0 |
| 20260505182002 | 85 | 193 | 0.0 | 1.0 | 0.00 | 0.00 | 0.00 | 37 | 1009.1 |
| 20260505181459 | 84 | 196 | 0.0 | 0.0 | 0.00 | 0.00 | 0.00 | 38 | 1009.0 |
| 20260505180956 | 85 | 66 | 2.0 | 5.0 | 0.00 | 0.00 | 0.00 | 38 | 1009.4 |
| 20260505180452 | 86 | 345 | 1.0 | 1.0 | 0.00 | 0.00 | 0.00 | 38 | 1009.5 |
| 20260505175949 | 85 | 217 | 0.0 | 0.0 | 0.00 | 0.00 | 0.00 | 39 | 1009.4 |
| 20260505175445 | 84 | 170 | 0.0 | 0.0 | 0.00 | 0.00 | 0.00 | 39 | 1009.5 |
| 20260505174942 | 84 | 236 | 2.0 | 5.0 | 0.00 | 0.00 | 0.00 | 39 | 1009.6 |
| 20260505174439 | 84 | 91 | 2.0 | 6.0 | 0.00 | 0.00 | 0.00 | 38 | 1009.5 |
| 20260505173935 | 85 | 124 | 0.0 | 0.0 | 0.00 | 0.00 | 0.00 | 38 | 1009.6 |
| 20260505173432 | 85 | 209 | 1.0 | 2.0 | 0.00 | 0.00 | 0.00 | 39 | 1009.8 |
| 20260505172929 | 84 | 89 | 1.0 | 2.0 | 0.00 | 0.00 | 0.00 | 39 | 1009.6 |